Dati Storici

Data ora Umidita' aria (%) Temperatura aria (°C) Rad globale (W/m²) Gonioanemometro (°) Tacoanemometro (m/s) Pioggia (mm)
09-06-2020 22:10 75.1 % 18.712 -53.286 0.513 0 0
09-06-2020 22:00 74 % 18.759 -59.177 -0.005 0 0
09-06-2020 21:50 74.4 % 18.745 -52.458 0.286 0 0
09-06-2020 21:40 74 % 18.905 -69.324 0.216 0 0
09-06-2020 21:30 73.6 % 18.943 -64.392 1.067 0 0
09-06-2020 21:20 73.4 % 18.948 -63.928 -0.006 0 0
09-06-2020 21:10 76.6 % 18.865 -57.298 1.664 0 0
09-06-2020 21:00 80.8 % 18.944 -68.763 -0.008 0 0
09-06-2020 20:50 82 % 19.164 -60.179 -0.007 0 0
09-06-2020 20:40 80.8 % 19.044 -77.892 1.658 0 0
09-06-2020 20:30 80.3 % 19.171 -67.416 1.318 0 0
09-06-2020 20:20 79.8 % 19.86 -64.415 2.898 0 0
09-06-2020 20:10 81.9 % 19.836 -61.672 0.03 0 0
09-06-2020 20:00 84.7 % 19.808 -63.375 -0.007 0 0
09-06-2020 19:50 84.1 % 19.877 -62.435 -0.007 0 0
09-06-2020 19:40 85.9 % 19.926 -72.786 -0.005 0 0
09-06-2020 19:30 86 % 19.839 -68.113 -0.008 0 0
09-06-2020 19:20 85.8 % 19.906 -64.752 -0.005 0 0
09-06-2020 19:10 87.1 % 19.844 -72.957 -0.011 0 0
09-06-2020 19:00 86.7 % 19.707 -64.282 0.503 0 0

I dati sono presentati in modo automatico a scopo informativo. In seguito a verifica i dati possono subire modifiche o essere invalidati e non riportati negli archivi definitivi.